#timestamp,LO_Frequency,Hit,StdDev 
1564783215.5,286046999.3,N
1564783235.4,286046996.7,N
1564783255.2,286046999.4,N
1564783275.1,286046998.3,N
1564783276.0,286046998.3,N
1564783295.8,286046999.3,N
1564783315.6,286047001.1,N
1564783335.5,286047000.6,N
1564783355.3,286046998.4,N
1564783375.2,286046998.6,N
1564783395.9,286046996.8,N
1564783415.7,286046996.9,N
1564783435.6,286046996.7,N
1564783455.4,286046997.8,N
1564783475.2,286046997.2,N
1564783495.1,286046997.5,N
1564783496.0,286046997.5,N
1564783515.8,286046997.0,N
1564783535.7,286046997.0,N
1564783555.5,286046999.1,N
1564783575.3,286046997.6,N
1564783595.2,286046996.9,N
1564783615.0,286046997.2,N
1564783615.9,286046997.2,N
1564783635.7,286046996.9,N
1564783655.6,286046999.6,N
1564783675.4,286046997.4,N
1564783695.3,286046996.7,N
1564783715.1,286046996.8,N
1564783716.0,286046996.8,N
1564783735.8,286046999.5,N
1564783755.7,286046997.2,N
1564783775.6,286046997.5,N
1564783795.4,286046996.9,N
1564783815.3,286046996.9,N
1564783835.1,286046999.2,N
1564783855.9,286046995.5,Y
1564783875.7,286046996.5,P
1564783895.5,286046998.8,N
1564783915.4,286046998.5,N
1564783935.2,286047001.0,N
1564783955.0,286047000.5,N
1564783955.9,286047000.5,N
1564783975.8,286046999.9,N
1564783995.6,286047000.0,N
1564784015.5,286047001.0,N
1564784035.3,286046998.3,N
1564784055.1,286047000.9,N
1564784075.9,286047000.9,N
1564784095.7,286047000.4,N
1564784115.5,286047002.3,N
1564784135.4,286047002.3,N
1564784155.2,286047001.7,N
1564784175.1,286047002.7,N
1564784176.0,286047002.7,N
1564784195.8,286046999.8,N
1564784215.6,286047002.8,N
1564784235.5,286047002.3,N
1564784255.3,286047000.0,N
1564784275.1,286046999.7,N
1564784295.9,286047002.5,N
1564784315.7,286047001.4,N
1564784335.6,286047001.7,N
1564784355.4,286047001.3,N
1564784375.2,286047002.5,N
1564784395.1,286047000.1,N
1564784396.0,286047000.1,N
1564784415.8,286047002.8,N
1564784435.6,286047001.5,N
1564784455.5,286047001.8,N
1564784475.3,286047002.3,N
1564784495.2,286046999.9,N
1564784515.9,286046999.9,N
1564784535.7,286047001.9,N
1564784555.6,286047003.6,Y
1564784605.4,286047002.6,E
1564784615.4,286047000.0,N
1564784635.2,286046999.3,P
1564784655.0,286046999.1,N
1564784655.9,286046999.1,N
1564784675.8,286046999.6,N
1564784695.6,286046998.7,Y
1564784715.5,286047002.5,P
1564784735.3,286047000.7,N
1564784755.1,286046999.0,N
1564784775.9,286046999.2,N
1564784795.7,286046999.5,N
1564784815.5,286046996.9,N
1564784835.4,286046999.2,N
1564784855.2,286046996.6,N
1564784875.1,286046999.3,N
1564784876.0,286046999.3,N
1564784895.8,286046998.8,N
1564784915.6,286046998.3,N
1564784935.5,286046998.5,N
1564784955.3,286046998.1,N
1564784975.1,286046998.1,N
1564784995.9,286046998.5,N
1564785015.7,286047001.2,N
1564785035.6,286047001.1,N
1564785055.4,286047000.9,N
1564785075.2,286047001.2,N
1564785095.1,286046998.2,N
1564785096.0,286046998.2,N
1564785115.8,286046998.6,N
1564785135.7,286046998.5,N
1564785155.5,286047001.1,N
1564785175.3,286047000.4,N
1564785195.2,286047000.4,N
1564785215.0,286046999.7,N
1564785215.9,286046999.7,N
1564785235.8,286047000.2,N
1564785255.6,286047000.8,N
1564785275.4,286047000.1,N
1564785295.3,286046998.1,N
1564785315.1,286046999.9,N
1564785335.9,286047002.6,N
1564785355.7,286047000.7,N
1564785375.5,286047001.0,N
1564785395.4,286046999.9,N
1564785415.2,286046998.4,N
1564785435.0,286046998.1,N
1564785435.9,286046998.1,N
1564785455.8,286046998.6,N
1564785475.6,286047001.1,N
1564785495.5,286047001.0,N
1564785515.3,286047000.7,N
1564785535.1,286046999.9,N
1564785555.9,286047000.3,N
1564785575.7,286047002.4,N
1564785595.6,286047002.4,N
1564785615.4,286046999.7,N
1564785635.2,286047001.5,N
1564785655.1,286047002.7,N
1564785656.0,286047002.7,N
1564785675.8,286047002.8,N
1564785695.7,286047000.2,N
1564785715.5,286047002.7,N
1564785735.3,286047002.3,N
1564785755.2,286046999.7,N
1564785775.0,286046998.5,N
1564785775.9,286046998.5,N
1564785795.8,286047000.3,N
1564785815.6,286047000.5,N
1564785835.4,286047000.2,N
1564785855.3,286046999.7,N
1564785875.1,286047000.3,N
1564785895.8,286047000.9,N
1564785915.7,286047000.6,N
1564785935.5,286047000.4,N
1564785955.4,286047000.7,N
1564785975.2,286047000.0,N
1564785995.0,286047002.8,N
1564785995.9,286047002.8,N
1564786015.8,286047002.7,N
1564786035.6,286047001.0,N
1564786055.4,286047001.0,N
1564786075.3,286047001.2,N
1564786095.1,286047001.1,N
1564786115.9,286047001.2,N
1564786135.7,286047001.1,N
1564786155.5,286046998.7,N
1564786205.4,286046996.6,E
1564786215.3,286047000.8,N
1564786235.2,286047002.7,P
1564786255.0,286047002.8,N
1564786255.9,286047002.8,Y
1564786275.8,286046999.1,P
1564786295.6,286046998.8,N
1564786315.4,286046998.2,N
1564786335.3,286047000.4,N
1564786355.1,286047000.8,N
1564786375.8,286046999.1,N
1564786395.7,286046999.3,N
1564786415.5,286046998.6,N
1564786435.4,286046998.1,N
1564786455.2,286047001.1,N
1564786475.0,286047000.5,N
1564786475.9,286047000.5,N
1564786495.8,286047001.1,N
1564786515.6,286047001.1,N
1564786535.4,286046998.3,N
1564786555.3,286047000.7,N
1564786575.1,286047000.6,N
1564786595.9,286047000.3,N
1564786615.7,286046999.9,N
1564786635.5,286047001.0,N
1564786655.4,286047000.2,N
1564786675.2,286046998.7,N
1564786695.1,286046999.3,N
1564786696.0,286046999.3,N
1564786715.8,286047001.1,N
1564786735.6,286046998.5,N
1564786755.5,286047000.6,N
1564786775.3,286046998.1,N
1564786795.2,286047001.1,N
